Regional Weather Roundup
Issued by NWS

Home | Current Version | Previous Version | Text Only | Print | Product List | Glossary Off
Versions: 1 2 3 4 5 6 7 8 9 10 11 12 13 14 15 16 17 18 19 20 21 22 23 24 25 26 27 28 29 30 31 32 33 34 35 36 37 38 39 40 41 42 43 44 45 46 47 48 49 50

456
ASUS44 KLIX 201505
RWRLA
LOUISIANA WEATHER ROUNDUP
NATIONAL WEATHER SERVICE NEW ORLEANS LA
1000 AM CDT SAT SEP 20 2014

NOTE: "FAIR" INDICATES FEW OR NO CLOUDS BELOW 12,000 FEET WITH NO
      SIGNIFICANT WEATHER AND/OR OBSTRUCTIONS TO VISIBILITY.
      SKY/WX - SKY CONDITION AND SIGNIFICANT WEATHER.
      TMP - AIR TEMPERATURE.    DP   - DEWPOINT TEMPERATURE.
      RH  - RELATIVE HUMIDITY.  PRES - PRESSURE.
      HX  - HEAT INDEX.         WCI  - WIND CHILL INDEX.

*  THESE STATIONS ARE NOT NWS OR FAA STATIONS AND ARE NOT UNDER
   NWS QUALITY CONTROL.

LAZ040-048-061>063-065-066-069-201600-
SOUTHEAST LOUISIANA

CITY           SKY/WX    TMP DP  RH WIND       PRES   REMARKS
N.O. AUDUBON     N/A     84  72  67 MISG        N/A
N.O. INTL ARPT MOSUNNY   82  70  66 NE16      29.99R
N.O. LAKEFRONT SUNNY     81  70  69 E17       29.99S
N.O. DOWNTOWN* FAIR      82  68  61 NE5       29.99S
SLIDELL        SUNNY     80  68  66 NE8       30.00R
BATON ROUGE    SUNNY     81  70  69 NE9       30.01R
BOOTHVILLE     MOSUNNY   83  71  67 E15G24    29.97R
BELLE CHASSE   MOSUNNY   83  72  69 E13       29.98R
BOGALUSA*        N/A     81  67  63 E6        30.05R
GALLIANO*      NOT AVBL
NEW ROADS*     FAIR      81  69  68 MISG      30.01S
GONZALES*      FAIR      80  73  80 NE10      29.99S
HAMMOND*       SUNNY     81  68  65 NE6       30.03R
HOUMA*         MOSUNNY   82  63  51 NE15      29.97R
PORT FOURCHON* SUNNY     84  72  65 E15G23    29.98S

$$

LAZ041-044-053-054-201600-
SOUTHWEST LOUISIANA

CITY           SKY/WX    TMP DP  RH WIND       PRES   REMARKS
LAKE CHARLES   SUNNY     80  72  76 NE9       29.98R
LAFAYETTE      SUNNY     81  73  76 NE9       29.99R
PATTERSON      SUNNY     82  73  74 E15       29.99S
SALT POINT       N/A     85  74  69 E8        29.95R
NEW IBERIA     SUNNY     82  72  71 NE13      29.98R
CHENAULT AIRPK SUNNY     79  72  78 NE12      29.99R

$$

LAZ027-028-201600-
CENTRAL LOUISIANA

CITY           SKY/WX    TMP DP  RH WIND       PRES   REMARKS
FORT POLK      SUNNY     80  69  69 E6        30.02R
ALEXANDRIA INT SUNNY     81  70  69 E7        30.01R
ALEXANDRIA     SUNNY     82  70  66 E5        30.03R

$$

LAZ001-002-201600-
NORTHWEST LOUISIANA

CITY           SKY/WX    TMP DP  RH WIND       PRES   REMARKS
SHREVEPORT     SUNNY     82  69  64 CALM      30.03R
BARKSDALE AFB  SUNNY     81  70  69 NW1       30.04R
DTN SHREVEPORT SUNNY     81  72  74 N3        30.04R

$$

LAZ014-016-201600-
NORTHEAST LOUISIANA

CITY           SKY/WX    TMP DP  RH WIND       PRES   REMARKS
MONROE         SUNNY     83  72  69 CALM      30.05R
TALLULAH       SUNNY     81  70  69 CALM      30.05R

$$




USA.gov is the U.S. government's official web portal to all federal, state and local government web resources and services.